Location: Tuebingen alte Sternwarte
(48.5376°N, 9.0555°E)
Time: 01:48:20
(UTC+02:00)

N. Korean satellite - Visible Passes

Search period start: 24 September 2017 00:00
Search period end: 04 October 2017 00:00
Orbit: 461 x 516 km, 97.2° (Epoch: 23 September)

Date Brightness Start Highest point End Pass type
(mag) Time Alt. Az. Time Alt. Az. Time Alt. Az.
24 Sep 10.1 20:42:53 10° WSW 20:44:23 12° W 20:45:53 10° WNW visible
25 Sep 9.6 20:18:05 10° SW 20:20:57 21° W 20:23:49 10° NW visible
26 Sep 8.5 19:54:08 10° SSW 19:57:36 36° W 20:01:03 10° NNW visible
28 Sep 10.2 20:43:42 10° WSW 20:45:01 12° W 20:46:20 10° WNW visible
29 Sep 9.6 20:18:47 10° SW 20:21:35 20° W 20:24:22 10° NW visible
30 Sep 8.5 19:54:48 10° SSW 19:58:13 35° W 20:01:37 10° NNW visible
01 Oct 7.1 19:31:15 10° S 19:34:55 67° WSW 19:38:33 10° NNW visible
02 Oct 10.2 20:44:31 10° WSW 20:45:37 11° W 20:46:43 10° WNW visible
03 Oct 9.6 20:19:27 10° SW 20:22:10 19° W 20:24:52 10° NW visible
